sat.trackr.live / text

‹ back to catalog

STARLINK-5059

NORAD 53912 · 2022-119AC

PAYLOAD ACTIVE UNKNOWN

§ Identity

Operator
Country
US
Launch date
2022-09-24
Launch site
AFETR
Launch vehicle
Mass (kg)
RCS (m²)

Purposes: comms

External: N2YO · Heavens-Above · Gunter

§ Orbital elements

Epoch: 2026-09-20T03:04:07.527360Z

Period
95.44 min
Inclination
53.1598°
Eccentricity
0.0001125
Mean motion
15.08858848 rev/d
Perigee alt
538.9 km
Apogee alt
540.5 km
Semi-major
6,917.8 km
B*
-2.4313e-4
RAAN
160.2315°
Arg perigee
83.8328°
Mean anomaly
276.2792°
Rev number
22,118

§ Raw data

STARLINK-50591 53912U 22119AC  26263.12786490 -.00004157  00000+0 -24313-3 0  99952 53912  53.1598 160.2315 0001125  83.8328 276.2792 15.08858848221186

JSON: /api/v1/satellites/53912 · /tle

For live sub-satellite position, see the globe view (requires WebGL).

§ Visibility from observer

Set your observer location to see the next 7 days of passes ≥ 10°. The values pass through the URL so the page stays shareable.

No JS? Fill the form by hand. The geolocation button needs JavaScript.